| time (UTC) | temp C | wind direction | speed KPH | gust KPH | rain 1hr cm | rain 24hr cm | rain mn cm | humidity % | barometer mb |
| 20260508014804 | 9 | 270 | 9.7 | 12.9 | 0.00 | 0.00 | 0.00 | 45 | 1023.3 |
| 20260508014303 | 9 | 247 | 11.3 | 12.9 | 0.00 | 0.00 | 0.00 | 45 | 1023.3 |
| 20260508013303 | 9 | 246 | 6.4 | 9.7 | 0.00 | 0.00 | 0.00 | 45 | 1023.3 |
| 20260508012803 | 10 | 225 | 6.4 | 9.7 | 0.00 | 0.00 | 0.00 | 45 | 1023.3 |
| 20260508012307 | 10 | 247 | 4.8 | 8.0 | 0.00 | 0.00 | 0.00 | 45 | 1023.3 |
| 20260508011804 | 10 | 315 | 3.2 | 3.2 | 0.00 | 0.00 | 0.00 | 44 | 1023.0 |
| 20260508011303 | 10 | 270 | 0.0 | 3.2 | 0.00 | 0.00 | 0.00 | 45 | 1023.0 |
| 20260508010803 | 10 | 274 | 3.2 | 3.2 | 0.00 | 0.00 | 0.00 | 46 | 1023.0 |
| 20260508010303 | 10 | 0 | 1.6 | 4.8 | 0.00 | 0.00 | 0.00 | 44 | 1023.3 |
| 20260508005804 | 10 | 0 | 3.2 | 4.8 | 0.00 | 0.00 | 0.00 | 44 | 1023.3 |
| 20260508005305 | 10 | 344 | 1.6 | 8.0 | 0.00 | 0.00 | 0.00 | 44 | 1023.0 |
| 20260508004303 | 9 | 270 | 3.2 | 8.0 | 0.00 | 0.00 | 0.00 | 48 | 1023.3 |
| 20260508003304 | 10 | 315 | 8.0 | 11.3 | 0.00 | 0.00 | 0.00 | 46 | 1023.0 |
| 20260508002804 | 10 | 315 | 8.0 | 12.9 | 0.00 | 0.00 | 0.00 | 43 | 1023.3 |
| 20260508002306 | 10 | 315 | 12.9 | 16.1 | 0.00 | 0.00 | 0.00 | 42 | 1023.3 |
| 20260508001804 | 11 | 315 | 8.0 | 12.9 | 0.00 | 0.00 | 0.00 | 40 | 1023.0 |
| 20260508001303 | 11 | 292 | 12.9 | 22.5 | 0.00 | 0.00 | 0.00 | 39 | 1023.0 |
| 20260507235803 | 11 | 270 | 8.0 | 19.3 | 0.00 | 0.00 | 0.00 | 40 | 1023.0 |
| 20260507235306 | 11 | 258 | 9.7 | 16.1 | 0.00 | 0.00 | 0.00 | 38 | 1023.0 |
| 20260507234803 | 12 | 253 | 19.3 | 25.7 | 0.00 | 0.00 | 0.00 | 37 | 1023.0 |
| 20260507234303 | 12 | 268 | 17.7 | 27.4 | 0.00 | 0.00 | 0.00 | 37 | 1023.0 |
| 20260507233803 | 12 | 270 | 16.1 | 22.5 | 0.00 | 0.00 | 0.00 | 37 | 1022.9 |
| 20260507232306 | 13 | 254 | 17.7 | 27.4 | 0.00 | 0.00 | 0.00 | 35 | 1023.0 |
| 20260507231804 | 13 | 270 | 14.5 | 25.7 | 0.00 | 0.00 | 0.00 | 35 | 1023.0 |
| 20260507231304 | 13 | 293 | 16.1 | 29.0 | 0.00 | 0.00 | 0.00 | 35 | 1023.0 |
| 20260507230803 | 13 | 268 | 16.1 | 27.4 | 0.00 | 0.00 | 0.00 | 35 | 1023.0 |
| 20260507225804 | 13 | 303 | 8.0 | 29.0 | 0.00 | 0.00 | 0.00 | 35 | 1023.0 |
| 20260507225306 | 13 | 277 | 14.5 | 20.9 | 0.00 | 0.00 | 0.00 | 36 | 1023.0 |
| 20260507224304 | 13 | 303 | 14.5 | 20.9 | 0.00 | 0.00 | 0.00 | 37 | 1023.0 |
| 20260507223804 | 13 | 319 | 11.3 | 16.1 | 0.00 | 0.00 | 0.00 | 37 | 1023.0 |
| 20260507223303 | 13 | 0 | 11.3 | 16.1 | 0.00 | 0.00 | 0.00 | 37 | 1023.3 |
| 20260507222804 | 13 | 55 | 6.4 | 12.9 | 0.00 | 0.00 | 0.00 | 37 | 1023.3 |
| 20260507222306 | 13 | 0 | 11.3 | 19.3 | 0.00 | 0.00 | 0.00 | 38 | 1023.3 |
| 20260507221304 | 12 | 269 | 12.9 | 25.7 | 0.00 | 0.00 | 0.00 | 38 | 1023.0 |
| 20260507220804 | 12 | 270 | 14.5 | 20.9 | 0.00 | 0.00 | 0.00 | 38 | 1023.0 |
| 20260507220304 | 12 | 269 | 17.7 | 25.7 | 0.00 | 0.00 | 0.00 | 38 | 1023.0 |
| 20260507215804 | 12 | 230 | 16.1 | 24.1 | 0.00 | 0.00 | 0.00 | 37 | 1023.3 |
| 20260507215306 | 12 | 264 | 16.1 | 24.1 | 0.00 | 0.00 | 0.00 | 38 | 1023.3 |
| 20260507214804 | 12 | 284 | 14.5 | 24.1 | 0.00 | 0.00 | 0.00 | 39 | 1023.4 |
| 20260507214304 | 12 | 300 | 4.8 | 19.3 | 0.00 | 0.00 | 0.00 | 38 | 1023.7 |
| 20260507213804 | 12 | 319 | 3.2 | 9.7 | 0.00 | 0.00 | 0.00 | 38 | 1023.7 |
| 20260507212804 | 12 | 42 | 6.4 | 12.9 | 0.00 | 0.00 | 0.00 | 38 | 1023.7 |
| 20260507212306 | 12 | 132 | 4.8 | 11.3 | 0.00 | 0.00 | 0.00 | 37 | 1024.0 |
| 20260507211804 | 11 | 138 | 9.7 | 12.9 | 0.00 | 0.00 | 0.00 | 38 | 1024.0 |
| 20260507211304 | 11 | 157 | 3.2 | 8.0 | 0.00 | 0.00 | 0.00 | 38 | 1024.0 |
| 20260507210803 | 11 | 135 | 4.8 | 11.3 | 0.00 | 0.00 | 0.00 | 38 | 1024.0 |
| 20260507210303 | 10 | 133 | 9.7 | 16.1 | 0.00 | 0.00 | 0.00 | 39 | 1024.0 |
| 20260507205804 | 10 | 135 | 8.0 | 12.9 | 0.00 | 0.00 | 0.00 | 38 | 1024.0 |
| 20260507205306 | 10 | 135 | 9.7 | 14.5 | 0.00 | 0.03 | 0.00 | 38 | 1024.3 |
| 20260507204304 | 10 | 135 | 8.0 | 14.5 | 0.00 | 0.03 | 0.00 | 39 | 1024.3 |
| 20260507203803 | 9 | 128 | 11.3 | 16.1 | 0.00 | 0.03 | 0.00 | 39 | 1024.3 |
| 20260507203304 | 9 | 112 | 12.9 | 16.1 | 0.00 | 0.05 | 0.00 | 38 | 1024.3 |
| 20260507202803 | 9 | 135 | 9.7 | 12.9 | 0.00 | 0.05 | 0.00 | 37 | 1024.3 |
| 20260507202306 | 9 | 135 | 11.3 | 14.5 | 0.00 | 0.05 | 0.00 | 37 | 1024.4 |
| 20260507201804 | 9 | 135 | 6.4 | 11.3 | 0.00 | 0.05 | 0.00 | 37 | 1024.7 |
| 20260507201304 | 9 | 130 | 6.4 | 9.7 | 0.00 | 0.08 | 0.00 | 36 | 1024.7 |
| 20260507200803 | 9 | 129 | 8.0 | 11.3 | 0.00 | 0.08 | 0.00 | 37 | 1024.7 |
| 20260507200303 | 9 | 112 | 8.0 | 12.9 | 0.00 | 0.10 | 0.00 | 38 | 1024.7 |
| 20260507195804 | 9 | 90 | 9.7 | 11.3 | 0.00 | 0.10 | 0.00 | 40 | 1024.7 |
| 20260507194804 | 8 | 135 | 4.8 | 4.8 | 0.00 | 0.15 | 0.00 | 39 | 1024.7 |
| 20260507194303 | 8 | 135 | 6.4 | 8.0 | 0.00 | 0.18 | 0.00 | 39 | 1024.7 |
| 20260507193804 | 8 | 126 | 4.8 | 8.0 | 0.00 | 0.20 | 0.00 | 38 | 1024.7 |
| 20260507193303 | 8 | 112 | 8.0 | 9.7 | 0.00 | 0.23 | 0.00 | 37 | 1024.7 |
| 20260507192804 | 8 | 135 | 4.8 | 9.7 | 0.00 | 0.28 | 0.00 | 37 | 1024.7 |
| 20260507192306 | 8 | 135 | 8.0 | 9.7 | 0.00 | 0.33 | 0.00 | 36 | 1024.7 |
| 20260507191803 | 8 | 135 | 9.7 | 11.3 | 0.00 | 0.38 | 0.00 | 35 | 1024.7 |
| 20260507191303 | 8 | 135 | 8.0 | 9.7 | 0.00 | 0.43 | 0.00 | 37 | 1024.7 |
| 20260507190804 | 9 | 135 | 8.0 | 9.7 | 0.00 | 0.46 | 0.00 | 37 | 1024.7 |
| 20260507190304 | 10 | 135 | 4.8 | 8.0 | 0.00 | 0.48 | 0.00 | 36 | 1024.7 |
| 20260507185803 | 10 | 180 | 3.2 | 4.8 | 0.00 | 0.51 | 0.00 | 35 | 1025.0 |
| 20260507185306 | 10 | 202 | 3.2 | 3.2 | 0.00 | 0.53 | 0.00 | 36 | 1025.0 |
| 20260507184804 | 10 | 225 | 4.8 | 4.8 | 0.00 | 0.56 | 0.00 | 36 | 1025.4 |
| 20260507182306 | 11 | 90 | 1.6 | 1.6 | 0.00 | 0.61 | 0.00 | 35 | 1025.4 |
| 20260507181803 | 11 | 90 | 0.0 | 0.0 | 0.00 | 0.61 | 0.00 | 38 | 1025.4 |
| 20260507181304 | 11 | 90 | 0.0 | 3.2 | 0.00 | 0.61 | 0.00 | 39 | 1025.7 |
| 20260507180803 | 11 | 90 | 3.2 | 4.8 | 0.00 | 0.61 | 0.00 | 38 | 1025.7 |
| 20260507180304 | 11 | 157 | 0.0 | 3.2 | 0.00 | 0.61 | 0.00 | 35 | 1025.7 |
| 20260507175306 | 12 | 225 | 0.0 | 1.6 | 0.00 | 0.61 | 0.00 | 32 | 1025.7 |
| 20260507174804 | 11 | 225 | 0.0 | 1.6 | 0.00 | 0.61 | 0.00 | 33 | 1025.7 |
| 20260507174304 | 11 | 225 | 0.0 | 3.2 | 0.00 | 0.61 | 0.00 | 34 | 1025.7 |
| 20260507173804 | 10 | 225 | 1.6 | 1.6 | 0.00 | 0.61 | 0.00 | 36 | 1025.7 |
| 20260507173304 | 8 | 225 | 0.0 | 3.2 | 0.00 | 0.61 | 0.00 | 41 | 1025.7 |
| 20260507172803 | 6 | 225 | 3.2 | 3.2 | 0.00 | 0.61 | 0.00 | 45 | 1025.7 |
| 20260507172307 | 5 | 225 | 3.2 | 4.8 | 0.00 | 0.61 | 0.00 | 46 | 1025.7 |
| 20260507171804 | 5 | 225 | 3.2 | 8.0 | 0.00 | 0.61 | 0.00 | 47 | 1025.7 |
| 20260507171304 | 5 | 225 | 4.8 | 8.0 | 0.00 | 0.61 | 0.00 | 46 | 1025.7 |
| 20260507170804 | 7 | 270 | 4.8 | 4.8 | 0.00 | 0.61 | 0.00 | 44 | 1025.7 |
| 20260507165803 | 8 | 0 | 4.8 | 4.8 | 0.00 | 0.61 | 0.00 | 46 | 1026.0 |
| 20260507165306 | 6 | 0 | 3.2 | 4.8 | 0.00 | 0.61 | 0.00 | 49 | 1025.7 |
| 20260507164804 | 6 | 37 | 6.4 | 9.7 | 0.00 | 0.61 | 0.00 | 48 | 1025.7 |
| 20260507164304 | 7 | 90 | 6.4 | 9.7 | 0.00 | 0.61 | 0.00 | 44 | 1025.7 |
| 20260507163804 | 9 | 95 | 1.6 | 8.0 | 0.00 | 0.64 | 0.00 | 41 | 1025.7 |
| 20260507163304 | 10 | 180 | 1.6 | 3.2 | 0.00 | 0.64 | 0.00 | 39 | 1025.7 |
| 20260507162804 | 10 | 180 | 3.2 | 8.0 | 0.00 | 0.64 | 0.00 | 37 | 1025.7 |
| 20260507162306 | 10 | 180 | 3.2 | 4.8 | 0.00 | 0.66 | 0.00 | 36 | 1025.7 |
| 20260507161304 | 9 | 90 | 0.0 | 0.0 | 0.00 | 0.71 | 0.00 | 39 | 1025.7 |
| 20260507160804 | 10 | 90 | 0.0 | 3.2 | 0.00 | 0.71 | 0.00 | 39 | 1026.0 |
| 20260507155804 | 10 | 90 | 3.2 | 4.8 | 0.00 | 0.76 | 0.00 | 36 | 1025.7 |
| 20260507154803 | 9 | 90 | 0.0 | 0.0 | 0.00 | 0.79 | 0.00 | 41 | 1026.0 |
| 20260507154304 | 9 | 90 | 1.6 | 4.8 | 0.00 | 0.79 | 0.00 | 40 | 1026.0 |
| 20260507153304 | 7 | 90 | 0.0 | 0.0 | 0.00 | 0.79 | 0.00 | 46 | 1026.0 |
| 20260507152804 | 5 | 90 | 0.0 | 0.0 | 0.00 | 0.79 | 0.00 | 50 | 1026.0 |
| 20260507152306 | 5 | 90 | 1.6 | 1.6 | 0.00 | 0.79 | 0.00 | 47 | 1026.0 |
| 20260507151803 | 6 | 90 | 0.0 | 1.6 | 0.00 | 0.79 | 0.00 | 42 | 1026.0 |
| 20260507151304 | 6 | 90 | 0.0 | 0.0 | 0.00 | 0.79 | 0.00 | 43 | 1026.0 |
| 20260507150804 | 6 | 90 | 0.0 | 1.6 | 0.00 | 0.79 | 0.00 | 47 | 1026.0 |
| 20260507150304 | 5 | 0 | 0.0 | 3.2 | 0.00 | 0.79 | 0.00 | 51 | 1026.0 |
| 20260507145804 | 3 | 0 | 1.6 | 3.2 | 0.00 | 0.79 | 0.00 | 55 | 1025.7 |
| 20260507145306 | 2 | 225 | 0.0 | 3.2 | 0.00 | 0.79 | 0.00 | 55 | 1025.7 |
| 20260507144804 | 2 | 225 | 4.8 | 8.0 | 0.00 | 0.79 | 0.00 | 54 | 1025.7 |
| 20260507144304 | 2 | 225 | 6.4 | 8.0 | 0.00 | 0.79 | 0.00 | 52 | 1025.7 |
| 20260507143804 | 2 | 238 | 4.8 | 8.0 | 0.00 | 0.79 | 0.00 | 52 | 1026.0 |
| 20260507143304 | 1 | 270 | 3.2 | 4.8 | 0.00 | 0.79 | 0.00 | 53 | 1026.0 |
| 20260507142804 | 0 | 270 | 3.2 | 4.8 | 0.00 | 0.79 | 0.00 | 54 | 1025.7 |
| 20260507142306 | 0 | 270 | 4.8 | 4.8 | 0.00 | 0.79 | 0.00 | 55 | 1025.7 |
| 20260507141802 | 0 | 270 | 4.8 | 8.0 | 0.00 | 0.79 | 0.00 | 56 | 1025.7 |
| 20260507141302 | 0 | 270 | 3.2 | 4.8 | 0.00 | 0.79 | 0.00 | 57 | 1025.7 |
| 20260507140802 | 0 | 270 | 4.8 | 8.0 | 0.00 | 0.79 | 0.00 | 56 | 1025.7 |
| 20260507140303 | 1 | 225 | 4.8 | 4.8 | 0.00 | 0.79 | 0.00 | 54 | 1025.7 |
| 20260507135802 | 1 | 247 | 3.2 | 4.8 | 0.00 | 0.79 | 0.00 | 54 | 1025.7 |
| 20260507135306 | 0 | 270 | 3.2 | 3.2 | 0.00 | 0.79 | 0.00 | 57 | 1025.7 |
| 20260507134802 | 0 | 270 | 3.2 | 4.8 | 0.00 | 0.79 | 0.00 | 57 | 1025.7 |
| 20260507133802 | 0 | 315 | 4.8 | 8.0 | 0.00 | 0.79 | 0.00 | 54 | 1025.7 |
| 20260507131302 | -1 | 274 | 4.8 | 8.0 | 0.00 | 0.79 | 0.00 | 49 | 1025.0 |
| 20260507130803 | -1 | 225 | 6.4 | 11.3 | 0.00 | 0.79 | 0.00 | 51 | 1025.0 |
| 20260507130302 | -1 | 225 | 11.3 | 14.5 | 0.00 | 0.79 | 0.00 | 56 | 1024.7 |
| 20260507125306 | -2 | 225 | 16.1 | 19.3 | 0.00 | 0.79 | 0.00 | 61 | 1024.7 |
| 20260507124802 | -2 | 225 | 16.1 | 19.3 | 0.00 | 0.79 | 0.00 | 59 | 1024.7 |
| 20260507124302 | -1 | 225 | 11.3 | 14.5 | 0.00 | 0.79 | 0.00 | 57 | 1025.0 |
| 20260507123803 | -2 | 247 | 9.7 | 12.9 | 0.00 | 0.79 | 0.00 | 58 | 1025.0 |
| 20260507122802 | -2 | 257 | 11.3 | 12.9 | 0.00 | 0.79 | 0.00 | 59 | 1025.0 |
| 20260507122306 | -3 | 270 | 8.0 | 11.3 | 0.00 | 0.79 | 0.00 | 61 | 1024.7 |
| 20260507121802 | -4 | 225 | 8.0 | 12.9 | 0.00 | 0.79 | 0.00 | 63 | 1024.7 |
| 20260507121303 | -4 | 225 | 12.9 | 14.5 | 0.00 | 0.79 | 0.00 | 61 | 1024.7 |
| 20260507115302 | -3 | 270 | 6.4 | 12.9 | 0.00 | 0.79 | 0.00 | 60 | 1024.7 |
| 20260507114802 | -2 | 225 | 11.3 | 12.9 | 0.00 | 0.79 | 0.00 | 60 | 1024.3 |
| 20260507114302 | -2 | 225 | 9.7 | 12.9 | 0.00 | 0.79 | 0.00 | 61 | 1024.3 |
| 20260507113802 | -4 | 225 | 11.3 | 16.1 | 0.00 | 0.79 | 0.00 | 64 | 1024.3 |
| 20260507113303 | -5 | 225 | 14.5 | 16.1 | 0.00 | 0.79 | 0.00 | 67 | 1024.3 |
| 20260507112803 | -5 | 210 | 11.3 | 14.5 | 0.00 | 0.79 | 0.00 | 63 | 1024.7 |
| 20260507112306 | -3 | 225 | 12.9 | 14.5 | 0.00 | 0.79 | 0.00 | 55 | 1024.4 |
| 20260507111802 | -2 | 225 | 12.9 | 16.1 | 0.00 | 0.79 | 0.00 | 54 | 1024.3 |
| 20260507111302 | -2 | 270 | 9.7 | 14.5 | 0.00 | 0.79 | 0.00 | 56 | 1024.3 |
| 20260507110803 | -2 | 225 | 14.5 | 16.1 | 0.00 | 0.79 | 0.00 | 57 | 1024.3 |
| 20260507110302 | -2 | 225 | 14.5 | 16.1 | 0.00 | 0.79 | 0.00 | 57 | 1024.3 |
| 20260507105802 | -2 | 225 | 9.7 | 14.5 | 0.00 | 0.79 | 0.00 | 58 | 1024.7 |
| 20260507105306 | -3 | 225 | 11.3 | 16.1 | 0.00 | 0.79 | 0.00 | 59 | 1024.3 |
| 20260507104803 | -3 | 225 | 8.0 | 12.9 | 0.00 | 0.79 | 0.00 | 62 | 1024.3 |
| 20260507104302 | -5 | 315 | 0.0 | 8.0 | 0.00 | 0.79 | 0.00 | 65 | 1024.7 |
| 20260507103803 | -6 | 225 | 8.0 | 12.9 | 0.00 | 0.79 | 0.00 | 69 | 1024.3 |
| 20260507102306 | -5 | 225 | 19.3 | 20.9 | 0.00 | 0.79 | 0.00 | 69 | 1024.7 |
| 20260507101302 | -5 | 225 | 19.3 | 22.5 | 0.00 | 0.79 | 0.00 | 69 | 1024.4 |
| 20260507100803 | -5 | 225 | 20.9 | 24.1 | 0.00 | 0.79 | 0.00 | 65 | 1024.7 |
| 20260507100302 | -3 | 225 | 19.3 | 22.5 | 0.00 | 0.79 | 0.00 | 63 | 1024.7 |
| 20260507095803 | -3 | 225 | 14.5 | 16.1 | 0.00 | 0.79 | 0.00 | 63 | 1024.7 |
| 20260507095305 | -3 | 225 | 14.5 | 16.1 | 0.00 | 0.79 | 0.00 | 64 | 1024.7 |
| 20260507094803 | -3 | 225 | 12.9 | 14.5 | 0.00 | 0.79 | 0.00 | 64 | 1024.7 |
| 20260507093803 | -2 | 225 | 9.7 | 11.3 | 0.00 | 0.79 | 0.00 | 63 | 1025.0 |
| 20260507093302 | -2 | 247 | 11.3 | 12.9 | 0.00 | 0.79 | 0.00 | 63 | 1024.7 |
| 20260507092802 | -2 | 247 | 11.3 | 16.1 | 0.00 | 0.79 | 0.00 | 64 | 1025.0 |
| 20260507092306 | -2 | 247 | 9.7 | 12.9 | 0.00 | 0.79 | 0.00 | 65 | 1024.7 |
| 20260507091802 | -3 | 247 | 11.3 | 12.9 | 0.00 | 0.79 | 0.00 | 66 | 1024.7 |
| 20260507090802 | -2 | 270 | 12.9 | 16.1 | 0.00 | 0.79 | 0.00 | 63 | 1024.7 |
| 20260507085802 | -2 | 270 | 6.4 | 11.3 | 0.00 | 0.79 | 0.00 | 63 | 1024.7 |
| 20260507085306 | -3 | 247 | 9.7 | 11.3 | 0.00 | 0.79 | 0.00 | 64 | 1024.7 |
| 20260507083802 | -3 | 263 | 14.5 | 19.3 | 0.00 | 0.79 | 0.00 | 66 | 1024.7 |
| 20260507083303 | -3 | 247 | 16.1 | 16.1 | 0.00 | 0.79 | 0.00 | 65 | 1024.7 |
| 20260507082803 | -3 | 247 | 16.1 | 16.1 | 0.00 | 0.79 | 0.00 | 65 | 1024.7 |
| 20260507082306 | -3 | 225 | 14.5 | 16.1 | 0.00 | 0.79 | 0.00 | 64 | 1024.3 |
| 20260507081303 | -4 | 225 | 16.1 | 19.3 | 0.00 | 0.79 | 0.00 | 65 | 1024.7 |
| 20260507080802 | -4 | 225 | 16.1 | 16.1 | 0.00 | 0.79 | 0.00 | 67 | 1024.3 |
| 20260507075803 | -3 | 225 | 12.9 | 16.1 | 0.00 | 0.79 | 0.00 | 66 | 1024.7 |
| 20260507075306 | -3 | 225 | 14.5 | 14.5 | 0.00 | 0.79 | 0.00 | 66 | 1024.7 |
| 20260507073803 | -2 | 236 | 14.5 | 16.1 | 0.00 | 0.79 | 0.00 | 67 | 1024.7 |
| 20260507073303 | -2 | 247 | 11.3 | 14.5 | 0.00 | 0.79 | 0.00 | 67 | 1024.7 |
| 20260507071803 | -2 | 266 | 12.9 | 14.5 | 0.00 | 0.79 | 0.00 | 68 | 1024.7 |
| 20260507071302 | -2 | 270 | 12.9 | 14.5 | 0.00 | 0.79 | 0.00 | 67 | 1024.7 |
| 20260507070803 | -2 | 270 | 11.3 | 14.5 | 0.00 | 0.79 | 0.00 | 67 | 1024.7 |
| 20260507070302 | -2 | 270 | 11.3 | 12.9 | 0.00 | 0.79 | 0.00 | 67 | 1024.7 |
| 20260507065803 | -2 | 270 | 11.3 | 14.5 | 0.00 | 0.79 | 0.00 | 66 | 1024.7 |
| 20260507065306 | -2 | 270 | 11.3 | 12.9 | 0.00 | 0.79 | 0.00 | 67 | 1024.7 |
| 20260507064803 | -2 | 270 | 11.3 | 16.1 | 0.00 | 0.79 | 0.00 | 66 | 1024.7 |
| 20260507063803 | -2 | 270 | 12.9 | 14.5 | 0.00 | 0.79 | 0.00 | 66 | 1024.7 |
| 20260507063302 | -2 | 247 | 12.9 | 16.1 | 0.00 | 0.79 | 0.00 | 66 | 1024.7 |
| 20260507062305 | -2 | 247 | 9.7 | 12.9 | 0.00 | 0.79 | 0.00 | 67 | 1024.7 |
| 20260507061803 | -2 | 247 | 14.5 | 14.5 | 0.00 | 0.79 | 0.00 | 67 | 1024.4 |
| 20260507061302 | -2 | 247 | 14.5 | 14.5 | 0.00 | 0.79 | 0.00 | 67 | 1024.4 |
| 20260507060902 | -2 | 247 | 11.3 | 14.5 | 0.00 | 0.79 | 0.00 | 67 | 1024.4 |
| 20260507060302 | -2 | 247 | 11.3 | 12.9 | 0.00 | 0.79 | 0.00 | 67 | 1024.3 |
| 20260507055803 | -2 | 247 | 9.7 | 12.9 | 0.00 | 0.79 | 0.79 | 68 | 1024.3 |
| 20260507055305 | -2 | 254 | 11.3 | 14.5 | 0.00 | 0.79 | 0.79 | 68 | 1024.3 |
| 20260507054803 | -2 | 270 | 11.3 | 12.9 | 0.00 | 0.79 | 0.79 | 67 | 1024.3 |
| 20260507054303 | -2 | 270 | 8.0 | 11.3 | 0.00 | 0.79 | 0.79 | 67 | 1024.3 |
| 20260507052803 | -1 | 225 | 3.2 | 9.7 | 0.00 | 0.79 | 0.79 | 66 | 1024.1 |
| 20260507052306 | -2 | 225 | 11.3 | 12.9 | 0.00 | 0.79 | 0.79 | 67 | 1024.0 |
| 20260507051802 | -2 | 225 | 6.4 | 12.9 | 0.00 | 0.79 | 0.79 | 67 | 1024.0 |
| 20260507051303 | -2 | 225 | 11.3 | 14.5 | 0.00 | 0.79 | 0.79 | 67 | 1024.0 |
| 20260507050802 | -2 | 225 | 11.3 | 14.5 | 0.00 | 0.79 | 0.79 | 67 | 1024.0 |
| 20260507045803 | -2 | 213 | 11.3 | 16.1 | 0.00 | 0.79 | 0.79 | 68 | 1024.0 |
| 20260507045306 | -2 | 225 | 9.7 | 14.5 | 0.00 | 0.79 | 0.79 | 69 | 1024.0 |
| 20260507044802 | -3 | 225 | 9.7 | 14.5 | 0.00 | 0.79 | 0.79 | 70 | 1024.0 |
| 20260507044303 | -3 | 225 | 9.7 | 12.9 | 0.00 | 0.79 | 0.79 | 71 | 1023.7 |
| 20260507043803 | -3 | 225 | 12.9 | 16.1 | 0.00 | 0.79 | 0.79 | 71 | 1023.9 |
| 20260507043302 | -3 | 225 | 16.1 | 19.3 | 0.00 | 0.79 | 0.79 | 71 | 1023.7 |
| 20260507042803 | -3 | 225 | 14.5 | 16.1 | 0.00 | 0.79 | 0.79 | 71 | 1023.7 |
| 20260507042306 | -3 | 225 | 14.5 | 16.1 | 0.00 | 0.79 | 0.79 | 71 | 1023.7 |
| 20260507041803 | -3 | 225 | 14.5 | 16.1 | 0.00 | 0.79 | 0.79 | 71 | 1023.7 |
| 20260507041302 | -3 | 225 | 9.7 | 11.3 | 0.00 | 0.79 | 0.79 | 73 | 1023.7 |
| 20260507040302 | -4 | 202 | 8.0 | 16.1 | 0.00 | 0.79 | 0.79 | 73 | 1023.4 |
| 20260507035802 | -4 | 189 | 8.0 | 12.9 | 0.00 | 0.79 | 0.79 | 72 | 1023.3 |
| 20260507035306 | -4 | 196 | 11.3 | 12.9 | 0.00 | 0.79 | 0.79 | 73 | 1023.3 |
| 20260507034802 | -4 | 225 | 11.3 | 12.9 | 0.00 | 0.79 | 0.79 | 74 | 1023.7 |
| 20260507034303 | -4 | 225 | 9.7 | 12.9 | 0.00 | 0.79 | 0.79 | 74 | 1023.6 |
| 20260507033803 | -4 | 225 | 8.0 | 12.9 | 0.00 | 0.79 | 0.79 | 74 | 1023.7 |
| 20260507033302 | -4 | 225 | 12.9 | 14.5 | 0.00 | 0.79 | 0.79 | 74 | 1023.3 |
| 20260507032803 | -4 | 224 | 9.7 | 14.5 | 0.00 | 0.79 | 0.79 | 74 | 1023.3 |
| 20260507032305 | -4 | 225 | 11.3 | 12.9 | 0.00 | 0.79 | 0.79 | 74 | 1023.3 |
| 20260507031802 | -4 | 182 | 9.7 | 14.5 | 0.00 | 0.79 | 0.79 | 73 | 1023.3 |
| 20260507031303 | -4 | 185 | 8.0 | 12.9 | 0.00 | 0.79 | 0.79 | 74 | 1023.3 |
| 20260507030303 | -4 | 193 | 9.7 | 14.5 | 0.00 | 0.79 | 0.79 | 73 | 1023.3 |
| 20260507025803 | -4 | 210 | 9.7 | 16.1 | 0.00 | 0.81 | 0.79 | 73 | 1023.1 |
| 20260507024803 | -3 | 225 | 12.9 | 14.5 | 0.00 | 0.81 | 0.79 | 73 | 1023.0 |
| 20260507024302 | -3 | 225 | 3.2 | 9.7 | 0.00 | 0.81 | 0.79 | 73 | 1023.3 |
| 20260507023803 | -3 | 225 | 8.0 | 12.9 | 0.00 | 0.81 | 0.79 | 73 | 1023.3 |
| 20260507023303 | -3 | 225 | 6.4 | 11.3 | 0.00 | 0.81 | 0.79 | 73 | 1023.1 |
| 20260507022803 | -3 | 225 | 8.0 | 14.5 | 0.00 | 0.81 | 0.79 | 73 | 1023.0 |
| 20260507022306 | -3 | 225 | 8.0 | 12.9 | 0.00 | 0.81 | 0.79 | 74 | 1023.0 |
| 20260507021803 | -3 | 225 | 4.8 | 11.3 | 0.00 | 0.81 | 0.79 | 74 | 1023.0 |
| 20260507021303 | -3 | 225 | 9.7 | 12.9 | 0.00 | 0.84 | 0.79 | 75 | 1023.0 |
| 20260507020802 | -3 | 225 | 8.0 | 11.3 | 0.00 | 0.84 | 0.79 | 77 | 1023.0 |
| 20260507020303 | -4 | 225 | 9.7 | 11.3 | 0.00 | 0.84 | 0.79 | 78 | 1023.0 |
| 20260507015306 | -3 | 225 | 11.3 | 14.5 | 0.00 | 0.84 | 0.79 | 76 | 1023.0 |